Location: Unspecified
(17.6330°N, 0.0000°E)
Time: 17:41:28
(UTC+00:00)

SRMSAT - Visible Passes

Search period start: 18 August 2019 00:00
Search period end: 28 August 2019 00:00
Orbit: 848 x 866 km, 20.0° (Epoch: 16 August)

Date Brightness Start Highest point End Pass type
(mag) Time Alt. Az. Time Alt. Az. Time Alt. Az.
18 Aug ? 04:22:09 14° SSW 04:25:07 20° SSE 04:29:18 10° ESE visible
19 Aug ? 04:10:06 19° S 04:12:08 22° SSE 04:16:40 10° ESE visible
20 Aug ? 03:58:03 24° S 03:59:07 26° SSE 04:03:59 10° ESE visible
21 Aug ? 03:45:58 29° SSE 03:46:08 29° SSE 03:51:14 10° E visible
22 Aug ? 03:33:53 32° SE 03:33:53 32° SE 03:38:27 10° E visible
22 Aug ? 05:16:13 10° WSW 05:22:12 73° SSE 05:28:10 10° E visible
23 Aug ? 03:21:47 31° SE 03:21:47 31° SE 03:25:38 10° E visible
23 Aug ? 05:03:47 13° WSW 05:09:14 79° SSE 05:15:14 10° E visible
24 Aug ? 03:09:40 28° ESE 03:09:40 28° ESE 03:12:47 10° E visible
24 Aug ? 04:51:40 18° WSW 04:56:16 85° SSE 05:02:17 10° E visible
25 Aug ? 02:57:33 23° E 02:57:33 23° E 02:59:54 10° E visible
25 Aug ? 04:39:32 24° W 04:43:19 90° ESE 04:49:20 10° E visible
26 Aug ? 02:45:25 19° E 02:45:25 19° E 02:47:00 10° E visible
26 Aug ? 04:27:24 32° W 04:30:21 85° N 04:36:23 10° E visible
27 Aug ? 02:33:16 14° E 02:33:16 14° E 02:34:05 10° E visible
27 Aug ? 04:15:16 42° W 04:17:24 81° N 04:23:26 10° E visible
